Indianapolis, IN

8:24 PM EDT on July 18, 2019 (GMT -0400)
Indianapolis Terry

Weather History for KTYQ - May, 2019

Change the Weather History Date:

Monday, May 13, 2019

  Actual Average (KEYE) Record (KEYE)
Temperature  
Mean Temperature 48 °F -  
Max Temperature 56 °F 69 °F 87 °F (2018)
Min Temperature 41 °F 51 °F 39 °F (1997)
Degree Days  
Heating Degree Days 16    
Moisture  
Dew Point 44 °F    
Average Humidity 91    
Maximum Humidity 100    
Minimum Humidity 64    
Precipitation  
Precipitation 0.00 in - - ()
Sea Level Pressure  
Sea Level Pressure 29.90 in    
Wind  
Wind Speed 7 mph ()    
Max Wind Speed 13 mph    
Max Gust Speed 16 mph    
Visibility 6.6 miles    
Events      
Averages and records for this station are not official NWS values.
T = Trace of Precipitation, MM = Missing Value Source: Averaged Metar Reports

Daily Weather History Graph

Daily Weather History Graph

Search for Another Location

Airport or City:

Astronomy

May. 13, 2019 Rise Set
Actual Time 6:31 AM EDT 8:51 PM EDT
Civil Twilight 6:01 AM EDT 9:22 PM EDT
Nautical Twilight 5:23 AM EDT 9:59 PM EDT
Astronomical Twilight 4:42 AM EDT 10:41 PM EDT
Moon 3:02 PM EDT (5/13) 3:49 AM EDT (5/13)
Length of Visible Light 15h 20m
Length of Day
14h 19m
Waxing Gibbous, 68% of the Moon is Illuminated
May 13
Waxing Gibbous
May 18
Full
May 26
Last Quarter
Jun 3
New
Jun 10
First Quarter

Hourly Weather History & Observations

Time (EDT) Temp. Windchill Dew Point Humidity Pressure Visibility Wind Dir Wind Speed Gust Speed Precip Events Conditions
12:15 AM 45.5 °F 44.2 °F 45.5 °F 100% 29.80 in 5.0 mi WNW 3.5 mph - N/A   Overcast
12:35 AM 45.5 °F 43.2 °F 45.5 °F 100% 29.80 in 7.0 mi West 4.6 mph - N/A   Overcast
12:55 AM 45.5 °F 42.5 °F 45.5 °F 100% 29.80 in 7.0 mi West 5.8 mph - N/A   Overcast
1:15 AM 45.1 °F 42.0 °F 45.1 °F 100% 29.80 in 5.0 mi WNW 5.8 mph - N/A   Overcast
1:35 AM 45.0 °F 41.2 °F 45.0 °F 100% 29.80 in 7.0 mi WNW 6.9 mph - N/A   Overcast
1:55 AM 44.6 °F 40.2 °F 44.6 °F 100% 29.79 in 3.0 mi West 8.1 mph - N/A   Overcast
2:15 AM 44.2 °F 39.7 °F 44.2 °F 100% 29.79 in 4.0 mi West 8.1 mph - N/A   Overcast
2:35 AM 43.7 °F 39.1 °F 43.7 °F 100% 29.79 in 1.8 mi WNW 8.1 mph - N/A   Overcast
2:55 AM 43.7 °F 39.1 °F 43.7 °F 100% 29.79 in 3.0 mi WNW 8.1 mph - N/A   Overcast
3:15 AM 43.7 °F 39.7 °F 43.7 °F 100% 29.79 in 2.0 mi WNW 6.9 mph - N/A   Overcast
3:35 AM 43.0 °F 38.2 °F 43.0 °F 100% 29.79 in 2.5 mi WNW 8.1 mph - N/A   Overcast
3:55 AM 43.0 °F 37.2 °F 43.0 °F 100% 29.79 in 3.0 mi WNW 10.4 mph - N/A   Overcast
4:15 AM 42.8 °F 37.5 °F 42.8 °F 100% 29.79 in 2.5 mi WNW 9.2 mph - N/A   Overcast
4:35 AM 42.4 °F 37.0 °F 42.4 °F 100% 29.80 in 2.5 mi WNW 9.2 mph - N/A   Overcast
4:55 AM 42.3 °F 36.8 °F 42.3 °F 100% 29.80 in 2.0 mi WNW 9.2 mph - N/A   Overcast
5:15 AM 42.1 °F 37.1 °F 42.1 °F 100% 29.81 in 2.0 mi WNW 8.1 mph - N/A   Overcast
5:35 AM 42.1 °F 36.6 °F 42.1 °F 100% 29.81 in 3.0 mi NW 9.2 mph 16.1 mph N/A   Drizzle
5:55 AM 42.1 °F 35.7 °F 42.1 °F 100% 29.82 in 2.5 mi WNW 11.5 mph - N/A   Overcast
6:15 AM 41.9 °F 38.2 °F 41.9 °F 100% 29.83 in 3.0 mi WNW 5.8 mph - N/A   Overcast
6:35 AM 41.9 °F 37.5 °F 41.9 °F 100% 29.83 in 2.5 mi WNW 6.9 mph - N/A   Overcast
6:55 AM 42.1 °F 38.4 °F 42.1 °F 100% 29.83 in 1.8 mi WNW 5.8 mph - N/A   Light Drizzle
7:15 AM 42.1 °F 37.7 °F 42.1 °F 100% 29.85 in 2.0 mi WNW 6.9 mph - N/A   Overcast
7:35 AM 42.3 °F 37.3 °F 42.3 °F 100% 29.86 in 2.0 mi WNW 8.1 mph - N/A   Overcast
7:55 AM 42.3 °F 37.3 °F 42.3 °F 100% 29.87 in 2.5 mi WNW 8.1 mph - N/A   Overcast
8:15 AM 42.3 °F 36.8 °F 42.3 °F 100% 29.88 in 1.8 mi WNW 9.2 mph - N/A   Overcast
8:35 AM 42.1 °F 36.6 °F 42.1 °F 100% 29.88 in 1.5 mi WNW 9.2 mph - N/A   Overcast
8:55 AM 42.1 °F 37.7 °F 42.1 °F 100% 29.89 in 2.0 mi WNW 6.9 mph - N/A   Overcast
9:15 AM 42.4 °F 36.5 °F 42.4 °F 100% 29.89 in 3.0 mi WNW 10.4 mph - N/A   Overcast
9:35 AM 42.8 °F 38.0 °F 42.8 °F 100% 29.90 in 2.5 mi WNW 8.1 mph - N/A   Overcast
9:55 AM 43.0 °F 38.2 °F 43.0 °F 100% 29.90 in 3.0 mi NW 8.1 mph - N/A   Overcast
10:15 AM 43.5 °F 39.4 °F 43.5 °F 100% 29.91 in 4.0 mi WNW 6.9 mph - N/A   Overcast
10:35 AM 43.7 °F 38.6 °F 43.7 °F 100% 29.91 in 4.0 mi WNW 9.2 mph - N/A   Overcast
10:55 AM 44.1 °F 39.5 °F 44.1 °F 100% 29.91 in 4.0 mi WNW 8.1 mph - N/A   Overcast
11:15 AM 45.7 °F 42.0 °F 45.3 °F 99% 29.91 in 5.0 mi WNW 6.9 mph - N/A   Overcast
11:35 AM 46.4 °F 42.9 °F 45.5 °F 97% 29.92 in 7.0 mi NW 6.9 mph - N/A   Overcast
11:55 AM 47.1 °F - 45.3 °F 93% 29.92 in 7.0 mi NW 10.4 mph - N/A   Overcast
12:15 PM 47.3 °F - 45.7 °F 94% 29.93 in 7.0 mi NW 8.1 mph - N/A   Overcast
12:55 PM 49.1 °F - 46.0 °F 89% 29.93 in 10.0 mi NW 8.1 mph - N/A   Overcast
1:15 PM 49.1 °F - 46.2 °F 90% 29.93 in 10.0 mi WNW 8.1 mph - N/A   Overcast
1:35 PM 50.0 °F - 46.0 °F 86% 29.93 in 10.0 mi NW 9.2 mph - N/A   Overcast
1:55 PM 49.5 °F - 45.7 °F 87% 29.94 in 10.0 mi NW 9.2 mph - N/A   Overcast
2:15 PM 50.0 °F - 45.9 °F 86% 29.94 in 10.0 mi NW 9.2 mph - N/A   Overcast
2:35 PM 51.8 °F - 45.0 °F 77% 29.93 in 10.0 mi WNW 10.4 mph - N/A   Overcast
2:55 PM 50.4 °F - 45.5 °F 83% 29.94 in 10.0 mi NW 11.5 mph - N/A   Overcast
3:15 PM 51.8 °F - 45.3 °F 79% 29.94 in 10.0 mi NW 6.9 mph 16.1 mph N/A   Overcast
3:35 PM 52.5 °F - 45.7 °F 78% 29.94 in 10.0 mi NW 10.4 mph - N/A   Overcast
3:55 PM 53.2 °F - 46.0 °F 77% 29.94 in 10.0 mi NW 8.1 mph - N/A   Overcast
4:15 PM 53.1 °F - 45.7 °F 76% 29.94 in 10.0 mi WNW 8.1 mph - N/A   Overcast
4:35 PM 53.6 °F - 45.3 °F 74% 29.94 in 10.0 mi NW 6.9 mph - N/A   Overcast
4:55 PM 54.0 °F - 45.3 °F 73% 29.94 in 10.0 mi NW 11.5 mph - N/A   Overcast
5:15 PM 54.1 °F - 45.3 °F 72% 29.94 in 10.0 mi NW 9.2 mph - N/A   Mostly Cloudy
5:35 PM 56.3 °F - 44.2 °F 64% 29.94 in 10.0 mi NW 12.7 mph - N/A   Mostly Cloudy
5:55 PM 55.0 °F - 44.1 °F 67% 29.95 in 10.0 mi NW 11.5 mph - N/A   Overcast
6:15 PM 55.0 °F - 45.0 °F 69% 29.95 in 10.0 mi NNW 8.1 mph - N/A   Overcast
6:35 PM 54.9 °F - 45.3 °F 70% 29.95 in 10.0 mi NNW 9.2 mph - N/A   Mostly Cloudy
6:55 PM 54.7 °F - 44.4 °F 68% 29.95 in 10.0 mi NNW 11.5 mph - N/A   Scattered Clouds
7:15 PM 55.8 °F - 44.6 °F 66% 29.95 in 10.0 mi WNW 6.9 mph - N/A   Clear
7:35 PM 55.9 °F - 43.9 °F 64% 29.96 in 10.0 mi WNW 6.9 mph - N/A   Scattered Clouds
7:55 PM 54.5 °F - 45.5 °F 72% 29.96 in 10.0 mi North 6.9 mph - N/A   Scattered Clouds
8:15 PM 54.0 °F - 45.1 °F 72% 29.96 in 10.0 mi North 4.6 mph - N/A   Clear
8:35 PM 52.9 °F - 45.3 °F 75% 29.96 in 10.0 mi North 4.6 mph - N/A   Clear
8:55 PM 52.0 °F - 45.1 °F 77% 29.97 in 10.0 mi Calm Calm - N/A   Clear
9:15 PM 49.6 °F - 46.0 °F 87% 29.98 in 10.0 mi Calm Calm - N/A   Clear
9:35 PM 49.3 °F - 44.8 °F 84% 29.98 in 10.0 mi Calm Calm - N/A   Clear
9:55 PM 46.8 °F - 46.2 °F 98% 29.99 in 10.0 mi Calm Calm - N/A   Clear
10:15 PM 45.5 °F - 45.5 °F 100% 29.99 in 10.0 mi Calm Calm - N/A   Clear
10:35 PM 43.9 °F - 43.9 °F 100% 30.00 in 10.0 mi Calm Calm - N/A   Clear
10:55 PM 44.6 °F - 44.6 °F 100% 30.01 in 10.0 mi Calm Calm - N/A   Clear
11:15 PM 43.0 °F - 43.0 °F 100% 30.01 in 10.0 mi Calm Calm - N/A   Clear
11:35 PM 42.4 °F - 42.4 °F 100% 30.01 in 10.0 mi Calm Calm - N/A   Clear
11:55 PM 42.1 °F - 42.1 °F 100% 30.01 in 7.0 mi Calm Calm - N/A   Clear